{"data":{"norad_id":64531,"intl_designator":"2025-135D","name":"TRANSPORTER-14 OBJECT D","alt_names":[],"object_type":"PAYLOAD","status":"ACTIVE","operator":null,"country":"TBD","launch_date":"2025-06-23","launch_site_code":"AFWTR","launch_vehicle":null,"mission":null,"orbit_class":"UNKNOWN","rcs_meters":null,"size_class":null,"mass_kg":null,"dimensions":null,"purposes":[],"wikipedia_slug":null,"has_3d_model":false,"image_url":null,"decayed_at":null,"tle_current":{"epoch":"2026-09-21T20:15:27.788832Z","epoch_age_seconds":65710,"freshness":"FRESH","line1":"1 64531U 25135D   26264.84407163  .00007848  00000+0  29000-3 0  9998","line2":"2 64531  97.4793  21.1901 0004338 170.1847 189.9478 15.27998128 69676","mean_motion":15.27998128,"eccentricity":0.0004338,"inclination_deg":97.4793,"raan_deg":21.1901,"arg_perigee_deg":170.1847,"mean_anomaly_deg":189.9478,"bstar":0.00029,"rev_number":6967,"period_min":94.240953153838,"perigee_km":478.82151638007,"apogee_km":484.77319542725,"semimajor_km":6859.9343559037,"source":"CELESTRAK","updated_at":"2026-09-22T09:00:29.815591Z"}}}